FW9370 Weather Reports


time (UTC)temp
F
wind
direction
speed
knots
gust
knots
rain 1hr
in
rain 24hr
in
rain mn
in
humidity
%
barometer
mb
20260508040031 51 94 2.6 6.1 0.00 0.00 0.00 84 1014.1
20260508034537 51 132 2.6 9.6 0.00 0.00 0.00 85 1014.2
20260508033029 52 143 1.7 5.2 0.00 0.00 0.00 86 1014.0
20260508031532 52 108 0.9 3.5 0.00 0.00 0.00 85 1014.1
20260508030039 52 0 0.0 5.2 0.00 0.00 0.00 85 1014.2
20260508024535 52 0 0.9 4.3 0.00 0.00 0.00 85 1014.3
20260508023031 52 63 1.7 3.5 0.00 0.00 0.00 84 1014.3
20260508021530 52 108 0.0 2.6 0.00 0.00 0.00 83 1014.4
20260508020030 52 0 0.9 1.7 0.00 0.00 0.00 81 1014.5
20260508014532 52 0 0.0 0.9 0.00 0.00 0.00 81 1014.4
20260508013029 52 0 0.0 0.0 0.00 0.00 0.00 81 1014.4
20260508011540 52 151 0.0 0.9 0.00 0.00 0.00 80 1014.5
20260508010032 52 0 0.0 2.6 0.00 0.00 0.00 79 1014.5
20260508004532 52 160 0.0 5.2 0.00 0.00 0.00 79 1014.6
20260508003032 53 120 0.9 2.6 0.00 0.00 0.00 86 1014.7
20260508001536 53 167 0.0 0.9 0.00 0.00 0.00 86 1014.6
20260508000034 53 191 0.0 0.0 0.00 0.00 0.00 86 1014.6
20260507234531 53 166 0.0 0.9 0.00 0.00 0.00 86 1014.8
20260507233033 53 0 0.0 0.0 0.00 0.00 0.00 86 1014.8
20260507231539 53 0 0.0 0.0 0.00 0.00 0.00 86 1014.9
20260507230032 53 0 0.0 0.9 0.00 0.00 0.00 87 1015.0
20260507224536 52 0 0.0 0.9 0.00 0.00 0.00 88 1014.9
20260507223030 52 0 0.0 0.0 0.00 0.00 0.00 88 1014.8
20260507221532 52 0 0.0 0.0 0.00 0.00 0.00 87 1014.7
20260507220029 53 207 0.0 0.9 0.00 0.00 0.00 86 1014.7
20260507214532 53 188 0.0 0.9 0.00 0.00 0.00 86 1014.8
20260507213030 53 179 0.0 0.9 0.00 0.00 0.00 85 1014.8
20260507211532 53 0 0.0 0.0 0.00 0.00 0.00 85 1014.8
20260507210030 53 0 0.0 0.9 0.00 0.00 0.00 84 1014.7
20260507204530 53 0 0.0 0.0 0.00 0.00 0.00 83 1014.6
20260507203033 53 0 0.0 0.0 0.00 0.00 0.00 82 1014.4
20260507201537 53 168 0.0 1.7 0.00 0.00 0.00 81 1014.3
20260507200043 54 0 0.0 0.0 0.00 0.00 0.00 81 1014.2
20260507194530 54 202 0.0 0.9 0.00 0.00 0.00 80 1014.1
20260507193034 54 0 0.0 0.0 0.00 0.00 0.00 79 1014.0
20260507191532 54 0 0.0 0.9 0.00 0.00 0.00 79 1014.1
20260507190032 55 0 0.0 0.9 0.00 0.00 0.00 78 1013.9
20260507184531 55 113 0.0 0.9 0.00 0.00 0.00 76 1014.0
20260507183038 55 0 0.0 0.9 0.00 0.00 0.00 76 1014.0
20260507181530 57 78 0.0 0.9 0.00 0.00 0.00 74 1014.0
20260507180038 56 101 0.0 1.7 0.00 0.00 0.00 73 1014.1
20260507174536 56 49 0.0 1.7 0.00 0.00 0.00 75 1014.0
20260507173034 57 0 1.7 4.3 0.00 0.00 0.00 72 1014.2
20260507171530 57 93 0.9 3.5 0.00 0.00 0.00 73 1014.1
20260507170030 56 0 0.0 5.2 0.00 0.00 0.00 76 1014.2
20260507164538 56 156 0.9 5.2 0.00 0.00 0.00 75 1014.2
20260507163029 58 123 0.0 2.6 0.00 0.00 0.00 74 1014.2
20260507161539 58 0 0.0 2.6 0.00 0.00 0.00 73 1014.1
20260507160035 59 169 0.0 3.5 0.00 0.00 0.00 73 1014.1
20260507154536 60 73 0.9 3.5 0.00 0.00 0.00 69 1014.1
20260507153029 59 91 0.9 4.3 0.00 0.00 0.00 67 1014.2
20260507151539 58 169 0.0 3.5 0.00 0.00 0.00 68 1014.2
20260507150032 58 127 1.7 5.2 0.00 0.00 0.00 69 1014.2
20260507144534 58 143 0.0 2.6 0.00 0.00 0.00 65 1014.2
20260507143030 58 0 0.0 3.5 0.00 0.00 0.00 66 1014.2
20260507141530 59 319 0.9 4.3 0.00 0.00 0.00 64 1014.3
20260507140029 59 131 0.0 4.3 0.00 0.00 0.00 68 1014.5
20260507134542 59 0 0.0 1.7 0.00 0.00 0.00 69 1014.6
20260507133030 58 55 0.9 2.6 0.00 0.00 0.00 69 1014.5
20260507131536 59 0 0.0 1.7 0.00 0.00 0.00 69 1014.7
20260507130029 59 71 0.0 2.6 0.00 0.00 0.00 70 1014.8
20260507124528 58 47 0.0 2.6 0.00 0.00 0.00 71 1014.8
20260507123030 58 0 0.9 5.2 0.00 0.00 0.00 71 1014.7
20260507121530 58 0 0.9 4.3 0.00 0.00 0.00 70 1014.7
20260507120029 59 0 0.0 2.6 0.00 0.00 0.00 70 1014.7
20260507114535 60 0 0.0 3.5 0.00 0.00 0.00 71 1014.7
20260507113028 59 26 0.0 3.5 0.00 0.00 0.00 71 1014.6
20260507111531 58 174 2.6 5.2 0.00 0.00 0.00 72 1014.6
20260507110042 59 147 0.9 7.0 0.00 0.00 0.00 73 1014.6
20260507104531 58 77 0.9 6.1 0.00 0.00 0.00 74 1014.6
20260507103032 57 136 2.6 6.1 0.00 0.00 0.00 74 1014.7
20260507101531 58 127 1.7 7.8 0.00 0.00 0.00 73 1014.7
20260507100034 57 105 2.6 7.0 0.00 0.00 0.00 74 1014.7
20260507094531 57 157 2.6 7.0 0.00 0.00 0.00 75 1014.6
20260507093032 56 162 2.6 8.7 0.00 0.00 0.00 76 1014.6
20260507091537 55 133 6.1 11.3 0.00 0.00 0.00 77 1014.5
20260507090037 55 121 3.5 9.6 0.00 0.00 0.00 78 1014.5
20260507084537 54 91 6.1 10.4 0.00 0.00 0.00 77 1014.5
20260507083037 54 158 4.3 8.7 0.00 0.00 0.00 79 1014.4
20260507081531 54 120 5.2 11.3 0.00 0.00 0.00 79 1014.3
20260507080030 52 136 6.1 11.3 0.00 0.00 0.00 80 1014.3
20260507074541 51 93 7.0 11.3 0.00 0.00 0.00 81 1014.3
20260507073030 51 115 6.1 11.3 0.00 0.00 0.00 82 1014.4
20260507071532 50 130 7.8 11.3 0.00 0.00 0.00 81 1014.3
20260507070030 50 128 8.7 15.6 0.00 0.00 0.00 81 1014.1
20260507064536 50 96 9.6 13.9 0.00 0.00 0.00 82 1014.1
20260507063034 50 107 7.8 12.2 0.00 0.00 0.00 81 1014.0
20260507061530 50 108 7.8 12.2 0.00 0.00 0.00 80 1014.0
20260507060028 50 109 7.0 12.2 0.00 0.00 0.00 80 1014.0
20260507054530 50 171 7.8 12.2 0.00 0.00 0.00 80 1013.9
20260507053032 50 108 7.8 13.0 0.00 0.00 0.00 80 1013.9
20260507051538 50 122 8.7 13.0 0.00 0.00 0.00 80 1013.8
20260507050037 50 93 7.8 12.2 0.00 0.00 0.00 80 1013.8
20260507044530 50 110 6.1 12.2 0.00 0.00 0.00 80 1013.8
20260507043030 50 110 4.3 12.2 0.00 0.00 0.00 80 1013.7
20260507041532 50 96 6.1 12.2 0.00 0.00 0.00 80 1013.8